Simultaneous Nadir Overpasses (SNOs) Predictions

Prediction of SNOs between AQUA and NPP Satellite Orbit:

Table of predicted SNOs for the next 14.0 days since TLE Epoch: 3/27/2020
Index Date (AQUA) Time (AQUA) Lat,Lon (AQUA) SZA (AQUA ) Date (NPP) Time (NPP) Lat,Lon (NPP) SZA (NPP ) Distance(km) Time Diff (sec)
1 03/29/2020 14:05:37 -75.58, 26.46 85.72 03/29/2020 14:04:31 -75.58, 26.48 85.67 0.82 66
2 03/29/2020 14:54:43 76.55,-162.87 93.15 03/29/2020 14:54:54 76.54,-162.88 93.14 0.32 11
3 04/01/2020 06:22:00 -75.89, 143.25 87.13 04/01/2020 06:21:20 -75.88, 143.24 87.09 0.22 40
4 04/01/2020 07:11:08 76.75, -46.29 91.85 04/01/2020 07:11:45 76.75, -46.34 91.83 1.46 37
5 04/03/2020 22:38:22 -76.19, -99.94 88.52 04/03/2020 22:38:08 -76.18, -99.97 88.50 0.84 14
6 04/03/2020 23:27:31 76.99, 70.48 90.52 04/03/2020 23:28:34 76.99, 70.40 90.48 2.18 63
7 04/06/2020 14:05:34 75.69,-153.21 91.04 04/06/2020 14:04:28 75.70,-153.14 91.07 2.17 66
8 04/06/2020 14:54:45 -76.48, 16.90 89.89 04/06/2020 14:54:57 -76.48, 16.86 89.90 1.06 12
9 04/09/2020 06:21:56 76.03, -36.30 89.63 04/09/2020 06:21:16 76.04, -36.23 89.64 1.95 40




NCC Satellite Simultaneous Nadir Overpasses (SNOs) Prediction Service
